Powrót do katalogu

FENGYUN 1C DEB

AktywnySSO
NORAD 41822·DEBRIS·🇨🇳 China

Wystrzelony May 10, 1999 z Taiyuan Satellite Launch Center

Loading…

Następne Przeloty (najbliższe 24 godziny)

TLE

ŚwieżeSource: Space-Track

Epoka: Sep 14, 2026, 03:26 UTC

1 41822U 99025EXZ 26257.14357764  .00002044  00000-0  85419-3 0  9991
2 41822  98.7141 326.9505 0055242 140.6690 219.8522 14.26411713512976

Śledź FENGYUN 1C DEB w czasie rzeczywistym z AllMySat

Download on the App Store